Regional Weather Roundup
Issued by NWS

Home | Current Version | Previous Version | Text Only | Print | Product List | Glossary Off
Versions: 1 2 3 4 5 6 7 8 9 10 11 12 13 14 15 16 17 18 19 20 21 22 23 24 25 26 27 28 29 30 31 32 33 34 35 36 37 38 39 40 41 42 43 44 45 46 47 48 49 50

000
ASUS45 KABQ 301010
RWRNM
WEATHER ROUNDUP FOR NEW MEXICO
NATIONAL WEATHER SERVICE ALBUQUERQUE NM
300 AM MST FRI JAN 30 2015

NOTE: "FAIR" MEANS FEW OR NO CLOUDS BELOW 12,000 FEET AGL WITH NO
       SIGNIFICANT WEATHER OR OBSTRUCTIONS TO VISION.

      THIS PRODUCT IS RELEASED AS TWO VERSIONS.  ONE VERSION NEAR
      THE TOP OF THE HOUR CONTAINING PRELIMINARY DATA FROM ALBUQUERQUE
      AND OTHER STATIONS.  A FINAL VERSION WITH ADDITIONAL DATA IS
      ISSUED ABOUT 10 MINUTES AFTER THE HOUR.

NMZ501-503-504-510>518-301100-
NORTHWEST PLATEAU/NORTHCENTRAL MOUNTAINS

CITY           SKY/WX    TMP DP  RH WIND       PRES   REMARKS
FARMINGTON     LGT SNOW  33  32  96 SE14      30.29F FOG     WCI  23
LOS ALAMOS     LGT SNOW  27  27 100 S12       30.39F VSB 1   WCI  16
SANTA FE       SNOW      28  26  92 SE10      30.39F VSB 1/2 WCI  19
TAOS           CLOUDY    28  25  86 CALM      30.37F
ANGEL FIRE     CLOUDY    28  22  79 S8        30.38F WCI  20

$$
NMZ402-403-502-505>509-301100-
WESTCENTRAL MOUNTAINS/SOUTHWEST MOUNTAINS

CITY           SKY/WX    TMP DP  RH WIND       PRES   REMARKS
GALLUP         LGT SNOW  32  31  96 NE8       30.23F VSB 3/4 WCI  25
GRANTS         LGT SNOW  31  30  98 S14G22    30.29F WCI  20
SILVER CITY    LGT RAIN  41  41 100 SE10      30.26F

$$
NMZ407-409-411-412-301100-
SOUTHERN DESERTS

CITY           SKY/WX    TMP DP  RH WIND       PRES   REMARKS
LORDSBURG      LGT RAIN  41  39  93 E29G38    30.17F
DEMING         RAIN      41  39  93 E17       30.26F FOG
LAS CRUCES     CLOUDY    43  38  81 SE18G24   30.26F
HOLLOMAN AFB   CLOUDY    45  37  76 CALM      30.28F
ALAMOGORDO     CLOUDY    45  36  70 NE7       30.30F
T OR C         LGT RAIN  41  37  86 N7        30.28F

$$
NMZ519>523-301100-
CENTRAL VALLEYS/CENTRAL HIGHLANDS

CITY           SKY/WX    TMP DP  RH WIND       PRES   REMARKS
ALBUQUERQUE    CLOUDY    36  28  73 E16G23    30.35F WCI  26
DOUBLE EAGLE   LGT SNOW  31  29  92 E12       30.35F WCI  22
MORIARTY ARPT  LGT SNOW  30  28  90 E7        30.41F WCI  23
CLINES CORNERS LGT SNOW  27  23  85 E9        30.36F FOG     WCI  18
BELEN          RAIN      34  34 100 NW5       30.33F WCI  30
SOCORRO        CLOUDY    40  33  77 N6        30.32F

$$
NMZ524>526-539-540-301100-
SOUTHCENTRAL MOUNTAINS

CITY           SKY/WX    TMP DP  RH WIND       PRES   REMARKS
RUIDOSO        LGT SNOW  28  27  93 SE10      30.38F WCI  19

$$
NMZ527>531-301100-
NORTHEAST HIGHLANDS/NORTHEAST PLAINS

CITY           SKY/WX    TMP DP  RH WIND       PRES   REMARKS
LAS VEGAS      CLOUDY    32  15  49 S10G18    30.41F WCI  24
RATON          CLOUDY    34  26  72 SW8       30.39F WCI  27
CLAYTON        CLOUDY    35  28  75 S5        30.39F WCI  31

$$
NMZ532>537-301100-
EASTCENTRAL PLAINS

CITY           SKY/WX    TMP DP  RH WIND       PRES   REMARKS
TUCUMCARI      CLOUDY    39  32  76 CALM      30.42F
CANNON AFB     CLOUDY    38  29  69 CALM      30.43F
CLOVIS AIRPORT CLOUDY    37  28  70 SE3       30.44F

$$
NMZ028-029-538-301100-
SOUTHEAST PLAINS

CITY           SKY/WX    TMP DP  RH WIND       PRES   REMARKS
ROSWELL        CLOUDY    44  28  53 E5        30.41F
ARTESIA        CLOUDY    45  28  53 S7        30.43F
CARLSBAD       CLOUDY    44  31  60 N8        30.41F
HOBBS          CLOUDY    41  23  48 E8        30.43S


$$


USA.gov is the U.S. government's official web portal to all federal, state and local government web resources and services.